SCP
0 -0 0 0 0 0 0 0 0 0 0 0 0 0 0 0 0 0 0 0 0 0 0 0 0 0 0 0 0 0 0 0 0 0 0 0 0 0 0 0 0 0 0
0 0 0 0 0 0 0 0 0 0 0 0 0 0 0 0 0 0 0 0 0 0 0 0 0 0 0 0 0 0 0 0 0 0 0 0 0 0 0 0 0 0 0
0 0 0 0 0 0 0 0 0 0 0 0 0 0 0 0 0 0 0 0 0 0 0 0 0 0 0 0 0 0 0 0 0 0 0 0 0 0 0 0 0 0 0
0 0 0 0 0 0 0 0 0 0 -0 0 0 0 0 0 0 0 0 0 0 0 0 0 0 0 0 0 0 0 0 0 0 0 0 0 0 0 0 0 0 0 0
0 0 0 0 0 0 0 0 0 0 0 0 0 0 0 0 0 0 0 0 0 0 0 -0 -0 -0 0 0 0 0 0 0 0 -0 -0 -0 0 0 0 0 0 0 0
0 0 0 0 0 0 0 0 0 0 0 0 0 0 0 0 0 0 0 0 0 0 0 -0 -0 -0 0 0 0 0 -0 -0 0 -0 0 -0 -0 -0 0 -0 0 0 0
0 0 0 0 0 0 0 0 0 0 0 0 0 0 0 0 0 0 0 0 0 0 0 -0 -0 0 0 0 0 0 0 0 0 -0 0 0 -0 -0 0 0 0 0 0
0 0 0 0 0 0 0 0 0 0 0 0 0 0 0 0 0 0 0 0 0 0 0 0 0 0 0 0 0 0 0 0 0 0 0 0 0 0 0 0 0 0 0
0 0 0 0 0 0 0 0 0 0 0 0 0 0 0 0 0 0 0 0 0 0 0 0 0 0 0 0 0 0 0 0 0 0 0 0 0 0 0 0 0 0 0
0 0 0 0 0 0 0 0 0 0 0 0 0 0 0 0 0 0 0 0 0 0 0 0 0 0 0 0 0 0 0 0 0 0 0 0 0 0 0 0 0 0 0
0 0 0 0 0 0 0 0 0 0 0 0 0 0 0 0 0 0 0 0 0 0 0 0 0 0 0 -0 0 0 0 0 0 0 0 0 0 0 0 0 0 0 0
0 0 0 0 0 0 0 0 0 0 0 0 0 0 0 0 0 0 0 0 0 0 0 0 0 0 0 0 0 0 0 0 0 0 0 0 0 0 0 0 0 0 0
0 0 0 0 0 0 0 0 0 0 0 0 0 0 0 0 0 0 0 0 0 0 0 0 0 0 -0 0 0 0 0 0 0 0 0 0 0 0 0 0 0 0 0
0 0 0 0 0 0 0 0 -0 0 0 0 0 0 0 0 0 0 0 0 0 0 0 0 0 0 0 0 0 0 0 0 0 0 0 0 0 0 0 0 0 0 0
0 0 0 0 0 0 0 0 0 0 0 0 0 0 0 0 0 0 0 0 0 0 0 0 0 0 0 0 0 0 0 0 0 0 0 0 0 0 0 0 0 0 0
0 0 0 0 0 0 0 0 0 0 0 0 0 0 0 0 0 0 0 0 0 0 0 0 0 0 0 0 0 0 0 0 0 0 0 0 0 0 0 0 0 0 0
0 0 0 0 0 0 0 0 0 0 0 0 0 0 0 0 -0 0 -0 -0 -0 0 0 0 0 0 0 0 0 0 0 0 0 0 0 0 0 0 0 0 0 0 0
0 0 0 0 0 0 0 0 0 0 0 0 0 0 -0 0 -0 0 0 -0 -0 0 -0 0 0 0 0 0 0 0 0 0 0 0 0 0 0 0 0 0 0 -0 -0
0 0 0 0 0 0 0 0 0 0 0 0 0 0 -0 0 0 -0 -0 0 -0 -0 0 0 0 0 0 0 0 -0 0 0 0 0 0 0 0 0 0 -0 0 0 0
0 0 0 0 0 0 0 0 0 0 0 0 0 0 0 -0 0 0 -0 -0 -0 -0 0 -0 -0 0 0 0 0 -0 -0 0 0 0 0 -0 0 0 0 -0 -0 0 0
0 0 0 0 0 0 0 0 0 0 0 0 0 0 0 -0 -0 0 0 0 -0 0 -0 0 0 0 0 0 0 0 -0 -0 -0 0 0 0 0 -0 -0 -0 -0 -0 -0
0 0 0 0 0 0 0 0 0 0 0 0 0 0 0 0 0 0 0 0 0 0 0 0 0 0 0 0 -0 -0 -0 -0 -0 0 0 0 -0 -0 -0 -0 -0 -0 0
0 0 0 0 0 0 0 0 0 0 0 -0 -0 0 0 0 0 -0 -0 -0 0 0 0 0 0 0 0 -0 0 0 0 0 0 0 0 -0 -0 -0 -0 -0 -0 -0 -0
0 0 0 -0 -0 -0 -0 -0 0 0 0 -0 -0 0 0 0 0 0 0 0 -0 0 0 0 0 0 0 0 -0 -0 -0 0 -0 -0 -0 0 0 -0 -0 -0 -0 0 0
0 0 0 0 0 -0 -0 -0 -0 -0 -0 0 -0 0 0 0 0 0 0 -0 0 0 -0 0 0 0 0 0 -0 0 0 0 0 0 0 0 0 0 -0 -0 0 0 0
0 0 0 0 0 0 0 0 -0 -0 -0 -0 0 -0 0 0 0 0 0 0 -0 -0 -0 0 0 0 0 0 -0 0 0 0 0 0 0 0 0 0 0 0 0 0 0
Wind_Speed_500mb
43 36 28 19 7 14 31 32 33 31 39 31 22 23 22 21 18 22 25 24 28 32 35 31 32 35 29 27 25 27 29 28 27 33 34 37 39 41 49 51 56 50 40
38 38 28 15 11 14 23 25 23 25 33 29 22 24 26 25 18 14 22 23 28 35 34 31 35 39 34 27 22 21 27 29 22 25 28 24 28 27 23 38 46 51 41
41 37 27 17 12 14 16 20 20 23 34 29 26 28 21 22 18 17 19 20 26 30 32 34 38 36 40 33 23 18 18 21 13 16 20 11 9 9 3 12 28 37 39
40 35 25 23 13 13 16 18 25 29 41 30 31 30 29 29 22 23 20 20 22 25 30 34 34 36 39 31 23 17 15 20 23 18 19 24 27 19 12 3 15 28 38
26 36 24 17 16 14 13 29 30 35 34 26 26 31 29 27 18 19 19 19 18 24 28 32 35 33 35 32 21 11 14 21 23 19 16 18 23 27 33 27 11 23 24
26 37 20 23 18 17 22 18 21 30 17 21 23 30 27 31 24 22 13 14 21 24 20 27 29 27 27 31 30 25 19 17 15 9 15 21 12 17 26 29 17 15 14
47 27 25 24 17 19 12 14 19 27 16 17 22 28 30 29 28 15 13 18 25 23 20 23 23 24 30 29 32 25 25 20 7 6 10 9 14 14 19 14 24 38 34
25 19 25 21 17 11 14 14 26 21 10 13 19 24 30 29 21 17 15 23 25 24 16 19 19 18 22 26 29 30 23 21 17 14 10 2 8 11 15 3 34 36 40
25 26 27 21 16 15 19 23 21 8 4 11 21 25 28 23 13 16 18 22 25 15 11 18 17 16 19 21 26 27 26 23 32 24 21 19 24 22 17 14 44 30 43
28 32 26 23 22 19 21 19 14 5 5 14 19 26 24 18 12 14 15 21 25 4 12 14 17 18 22 23 26 24 27 29 23 24 34 28 24 22 22 21 16 26 43
35 34 27 21 19 17 15 12 16 6 8 14 20 23 20 16 20 25 26 32 12 12 9 9 15 21 25 23 22 19 21 19 23 21 25 27 34 18 29 30 28 25 37
33 28 24 23 20 17 14 13 13 8 10 15 16 16 15 19 22 25 24 31 27 29 16 7 8 9 13 18 20 20 19 16 10 15 15 25 25 29 30 31 29 32 27
21 22 27 31 22 18 16 15 9 8 6 14 9 11 9 15 11 23 25 19 21 25 30 13 9 7 9 10 14 16 23 13 15 9 12 17 17 19 18 20 22 22 24
7 18 16 26 23 23 21 10 7 11 14 10 9 13 14 19 13 15 19 20 17 18 16 12 13 14 8 11 11 11 21 31 26 27 26 22 19 19 17 16 18 19 20
2 2 7 17 25 29 21 13 6 15 15 22 10 13 15 18 15 16 20 16 21 10 10 13 19 14 10 9 8 9 13 19 25 25 23 21 23 23 21 15 13 12 14
21 17 16 12 21 24 23 16 14 17 20 21 16 14 14 11 15 14 14 14 21 9 4 6 15 12 3 5 3 6 5 8 11 15 14 17 13 12 12 13 12 12 9
48 35 30 28 23 23 25 19 23 21 21 30 17 14 16 15 12 16 17 17 15 10 9 3 3 10 6 3 6 10 6 7 7 9 5 6 6 6 6 2 3 7 9
48 42 28 21 29 30 29 26 25 23 21 28 24 15 21 19 15 13 17 20 16 11 12 7 6 7 8 4 6 2 3 5 2 3 3 3 6 6 6 5 5 4 3
44 42 40 38 32 36 43 41 32 24 24 27 30 22 18 15 18 16 19 20 17 13 13 13 17 14 15 14 14 11 7 2 6 9 10 12 11 15 12 10 12 13 11
55 50 47 46 42 42 47 41 43 33 28 23 32 29 26 26 22 25 23 21 18 14 17 15 16 21 20 19 15 18 16 13 9 7 6 9 7 14 16 10 10 11 13
55 49 52 47 47 40 36 30 30 37 36 25 29 30 28 28 25 25 24 21 19 15 13 19 19 20 22 22 16 13 22 25 21 14 5 9 8 16 18 12 6 9 7
47 52 56 58 54 44 37 32 42 36 31 32 34 35 31 32 34 32 29 27 29 29 24 23 24 22 23 24 24 19 12 18 25 22 21 21 20 16 17 9 6 3 12
42 43 47 59 62 58 40 35 32 31 32 36 35 36 35 35 38 34 36 34 33 35 27 22 22 20 18 20 22 23 22 21 19 23 27 29 29 23 18 12 10 9 11
45 48 50 56 60 60 56 46 34 30 40 42 38 33 33 34 34 43 40 41 38 36 29 28 20 14 12 17 18 21 26 26 18 15 21 28 31 29 28 24 21 22 25
45 48 44 49 53 50 52 48 42 41 29 26 38 28 30 33 34 37 44 43 44 39 36 30 25 29 27 24 19 21 27 32 29 33 37 33 33 33 34 37 31 29 33
38 46 49 49 48 44 39 46 51 44 31 20 32 46 31 27 26 29 39 37 42 40 38 33 30 26 29 31 31 25 20 30 33 35 34 32 32 34 31 32 23 25 32
Wind_Direction_500mb
185 189 190 184 248 336 351 340 330 341 354 358 2 10 12 358 335 347 355 349 360 4 356 0 353 345 332 331 310 285 282 272 285 285 275 263 259 258 262 250 248 256 257
187 186 190 204 262 326 338 329 328 342 360 360 357 348 351 357 353 344 343 352 2 3 359 358 354 353 352 331 323 303 289 287 284 282 285 295 282 270 266 249 241 245 246
187 193 193 217 244 287 312 320 324 341 359 2 351 345 341 349 340 345 348 348 1 359 358 357 351 349 347 336 311 306 305 301 298 277 262 265 254 301 254 271 235 224 230
195 203 210 208 247 265 282 332 339 351 353 354 360 354 353 343 340 331 333 334 343 350 351 353 355 353 353 344 332 287 295 296 302 286 269 263 262 274 298 258 229 226 233
211 212 210 220 234 239 292 333 345 345 355 357 360 4 3 345 326 323 331 325 331 340 346 354 357 358 2 13 1 333 292 289 291 288 284 278 272 255 250 264 250 220 216
204 201 216 221 224 266 316 316 346 355 5 1 5 4 355 354 342 338 344 345 345 337 345 359 3 18 23 17 17 16 348 308 293 275 277 272 268 256 230 231 246 203 192
184 188 187 203 245 287 288 323 351 351 357 10 357 351 343 344 345 355 346 343 351 354 347 2 15 29 27 24 19 13 17 27 18 334 285 232 241 245 212 230 209 149 137
199 188 202 224 267 265 298 318 331 338 345 355 345 342 337 331 342 352 345 347 346 344 342 13 22 22 33 30 29 32 33 32 44 29 3 115 196 206 198 135 149 130 144
179 202 216 231 268 298 295 296 315 308 346 324 345 347 340 333 314 342 352 349 346 340 10 21 35 43 33 27 31 37 39 51 54 48 51 83 86 105 149 140 135 141 137
198 214 216 243 266 269 286 295 325 325 299 342 341 353 354 8 7 353 346 349 338 68 20 48 48 42 22 31 39 54 48 52 56 51 60 70 89 91 91 129 137 131 145
210 212 222 254 254 269 277 295 315 273 288 346 342 3 8 42 44 35 32 22 49 36 23 43 48 31 32 32 40 47 50 43 48 62 41 70 67 97 107 100 122 130 131
222 222 248 243 244 239 264 271 301 225 319 336 329 359 20 43 35 23 29 38 31 25 2 341 30 34 30 35 41 52 69 50 24 39 64 69 84 95 93 103 110 124 128
212 227 226 229 237 239 254 295 281 220 273 323 328 352 357 10 6 14 14 20 20 25 35 71 37 349 21 51 55 48 53 61 58 91 79 80 90 114 109 107 114 130 134
286 266 257 250 250 251 257 287 313 234 272 294 309 334 331 340 336 343 355 4 4 19 24 24 6 1 91 77 72 57 73 66 73 92 91 89 89 94 111 125 109 132 142
26 339 289 256 254 247 254 268 291 267 262 300 296 308 314 319 328 344 324 338 349 3 7 359 26 35 131 132 94 81 83 74 78 93 90 82 85 86 91 122 117 128 140
318 305 310 290 284 260 264 274 289 266 257 274 292 305 328 308 313 320 331 334 348 328 11 331 22 29 105 177 193 124 131 99 94 115 94 65 79 79 83 90 98 122 140
330 301 310 307 307 281 275 285 324 299 267 272 277 285 280 305 309 314 308 305 324 320 227 333 307 14 25 130 152 152 128 99 99 126 94 69 68 42 33 125 83 112 139
347 332 305 305 294 304 296 291 303 303 279 273 271 255 282 304 302 294 343 335 306 305 230 255 285 309 350 315 223 238 193 228 200 206 255 359 353 352 318 276 244 244 248
353 347 343 320 302 305 295 293 287 303 277 276 275 260 257 271 296 304 310 325 328 291 259 258 263 267 286 308 265 265 226 210 274 260 267 273 318 332 326 286 278 264 258
359 351 344 331 331 298 291 269 281 287 282 278 269 267 268 257 271 286 291 311 317 319 287 272 272 273 261 274 287 252 241 256 277 276 282 217 280 351 349 320 298 277 260
9 1 359 357 351 329 324 275 270 269 287 287 271 268 270 252 266 275 288 285 295 311 296 294 303 297 284 257 258 262 253 261 266 287 245 220 280 322 336 333 324 309 217
360 358 359 357 357 350 324 306 277 288 274 281 275 267 268 260 257 263 272 276 286 293 294 294 302 297 280 262 238 237 253 270 257 253 241 244 257 305 318 317 317 284 187
355 354 351 352 359 0 345 312 300 293 271 256 270 276 265 256 255 261 268 264 269 282 281 308 288 312 250 238 238 234 244 270 264 248 247 252 264 282 280 281 252 236 215
354 356 351 355 357 0 3 1 334 277 268 271 264 271 271 268 266 259 267 264 262 266 267 290 286 304 263 258 247 237 228 237 245 272 285 271 268 265 260 259 267 272 265
352 355 355 356 356 359 4 5 4 358 331 258 290 273 274 279 272 267 260 263 261 262 266 273 281 293 288 296 290 272 248 241 259 265 283 273 264 262 255 259 268 284 265
350 354 357 355 353 351 357 5 10 360 348 336 318 290 284 273 278 278 278 258 255 259 260 268 271 275 287 288 292 299 266 251 263 277 284 276 269 266 261 247 279 281 242
Wind_Speed_850mb
43 36 28 19 7 14 31 32 33 31 39 31 22 23 22 21 18 22 25 24 28 32 35 31 32 35 29 27 25 27 29 28 27 33 34 37 39 41 49 51 56 50 40
38 38 28 15 11 14 23 25 23 25 33 29 22 24 26 25 18 14 22 23 28 35 34 31 35 39 34 27 22 21 27 29 22 25 28 24 28 27 23 38 46 51 41
41 37 27 17 12 14 16 20 20 23 34 29 26 28 21 22 18 17 19 20 26 30 32 34 38 36 40 33 23 18 18 21 13 16 20 11 9 9 3 12 28 37 39
40 35 25 23 13 13 16 18 25 29 41 30 31 30 29 29 22 23 20 20 22 25 30 34 34 36 39 31 23 17 15 20 23 18 19 24 27 19 12 3 15 28 38
26 36 24 17 16 14 13 29 30 35 34 26 26 31 29 27 18 19 19 19 18 24 28 32 35 33 35 32 21 11 14 21 23 19 16 18 23 27 33 27 11 23 24
26 37 20 23 18 17 22 18 21 30 17 21 23 30 27 31 24 22 13 14 21 24 20 27 29 27 27 31 30 25 19 17 15 9 15 21 12 17 26 29 17 15 14
47 27 25 24 17 19 12 14 19 27 16 17 22 28 30 29 28 15 13 18 25 23 20 23 23 24 30 29 32 25 25 20 7 6 10 9 14 14 19 14 24 38 34
25 19 25 21 17 11 14 14 26 21 10 13 19 24 30 29 21 17 15 23 25 24 16 19 19 18 22 26 29 30 23 21 17 14 10 2 8 11 15 3 34 36 40
25 26 27 21 16 15 19 23 21 8 4 11 21 25 28 23 13 16 18 22 25 15 11 18 17 16 19 21 26 27 26 23 32 24 21 19 24 22 17 14 44 30 43
28 32 26 23 22 19 21 19 14 5 5 14 19 26 24 18 12 14 15 21 25 4 12 14 17 18 22 23 26 24 27 29 23 24 34 28 24 22 22 21 16 26 43
35 34 27 21 19 17 15 12 16 6 8 14 20 23 20 16 20 25 26 32 12 12 9 9 15 21 25 23 22 19 21 19 23 21 25 27 34 18 29 30 28 25 37
33 28 24 23 20 17 14 13 13 8 10 15 16 16 15 19 22 25 24 31 27 29 16 7 8 9 13 18 20 20 19 16 10 15 15 25 25 29 30 31 29 32 27
21 22 27 31 22 18 16 15 9 8 6 14 9 11 9 15 11 23 25 19 21 25 30 13 9 7 9 10 14 16 23 13 15 9 12 17 17 19 18 20 22 22 24
7 18 16 26 23 23 21 10 7 11 14 10 9 13 14 19 13 15 19 20 17 18 16 12 13 14 8 11 11 11 21 31 26 27 26 22 19 19 17 16 18 19 20
2 2 7 17 25 29 21 13 6 15 15 22 10 13 15 18 15 16 20 16 21 10 10 13 19 14 10 9 8 9 13 19 25 25 23 21 23 23 21 15 13 12 14
21 17 16 12 21 24 23 16 14 17 20 21 16 14 14 11 15 14 14 14 21 9 4 6 15 12 3 5 3 6 5 8 11 15 14 17 13 12 12 13 12 12 9
48 35 30 28 23 23 25 19 23 21 21 30 17 14 16 15 12 16 17 17 15 10 9 3 3 10 6 3 6 10 6 7 7 9 5 6 6 6 6 2 3 7 9
48 42 28 21 29 30 29 26 25 23 21 28 24 15 21 19 15 13 17 20 16 11 12 7 6 7 8 4 6 2 3 5 2 3 3 3 6 6 6 5 5 4 3
44 42 40 38 32 36 43 41 32 24 24 27 30 22 18 15 18 16 19 20 17 13 13 13 17 14 15 14 14 11 7 2 6 9 10 12 11 15 12 10 12 13 11
55 50 47 46 42 42 47 41 43 33 28 23 32 29 26 26 22 25 23 21 18 14 17 15 16 21 20 19 15 18 16 13 9 7 6 9 7 14 16 10 10 11 13
55 49 52 47 47 40 36 30 30 37 36 25 29 30 28 28 25 25 24 21 19 15 13 19 19 20 22 22 16 13 22 25 21 14 5 9 8 16 18 12 6 9 7
47 52 56 58 54 44 37 32 42 36 31 32 34 35 31 32 34 32 29 27 29 29 24 23 24 22 23 24 24 19 12 18 25 22 21 21 20 16 17 9 6 3 12
42 43 47 59 62 58 40 35 32 31 32 36 35 36 35 35 38 34 36 34 33 35 27 22 22 20 18 20 22 23 22 21 19 23 27 29 29 23 18 12 10 9 11
45 48 50 56 60 60 56 46 34 30 40 42 38 33 33 34 34 43 40 41 38 36 29 28 20 14 12 17 18 21 26 26 18 15 21 28 31 29 28 24 21 22 25
45 48 44 49 53 50 52 48 42 41 29 26 38 28 30 33 34 37 44 43 44 39 36 30 25 29 27 24 19 21 27 32 29 33 37 33 33 33 34 37 31 29 33
38 46 49 49 48 44 39 46 51 44 31 20 32 46 31 27 26 29 39 37 42 40 38 33 30 26 29 31 31 25 20 30 33 35 34 32 32 34 31 32 23 25 32
Wind_Direction_850mb
185 189 190 184 248 336 351 340 330 341 354 358 2 10 12 358 335 347 355 349 360 4 356 0 353 345 332 331 310 285 282 272 285 285 275 263 259 258 262 250 248 256 257
187 186 190 204 262 326 338 329 328 342 360 360 357 348 351 357 353 344 343 352 2 3 359 358 354 353 352 331 323 303 289 287 284 282 285 295 282 270 266 249 241 245 246
187 193 193 217 244 287 312 320 324 341 359 2 351 345 341 349 340 345 348 348 1 359 358 357 351 349 347 336 311 306 305 301 298 277 262 265 254 301 254 271 235 224 230
195 203 210 208 247 265 282 332 339 351 353 354 360 354 353 343 340 331 333 334 343 350 351 353 355 353 353 344 332 287 295 296 302 286 269 263 262 274 298 258 229 226 233
211 212 210 220 234 239 292 333 345 345 355 357 360 4 3 345 326 323 331 325 331 340 346 354 357 358 2 13 1 333 292 289 291 288 284 278 272 255 250 264 250 220 216
204 201 216 221 224 266 316 316 346 355 5 1 5 4 355 354 342 338 344 345 345 337 345 359 3 18 23 17 17 16 348 308 293 275 277 272 268 256 230 231 246 203 192
184 188 187 203 245 287 288 323 351 351 357 10 357 351 343 344 345 355 346 343 351 354 347 2 15 29 27 24 19 13 17 27 18 334 285 232 241 245 212 230 209 149 137
199 188 202 224 267 265 298 318 331 338 345 355 345 342 337 331 342 352 345 347 346 344 342 13 22 22 33 30 29 32 33 32 44 29 3 115 196 206 198 135 149 130 144
179 202 216 231 268 298 295 296 315 308 346 324 345 347 340 333 314 342 352 349 346 340 10 21 35 43 33 27 31 37 39 51 54 48 51 83 86 105 149 140 135 141 137
198 214 216 243 266 269 286 295 325 325 299 342 341 353 354 8 7 353 346 349 338 68 20 48 48 42 22 31 39 54 48 52 56 51 60 70 89 91 91 129 137 131 145
210 212 222 254 254 269 277 295 315 273 288 346 342 3 8 42 44 35 32 22 49 36 23 43 48 31 32 32 40 47 50 43 48 62 41 70 67 97 107 100 122 130 131
222 222 248 243 244 239 264 271 301 225 319 336 329 359 20 43 35 23 29 38 31 25 2 341 30 34 30 35 41 52 69 50 24 39 64 69 84 95 93 103 110 124 128
212 227 226 229 237 239 254 295 281 220 273 323 328 352 357 10 6 14 14 20 20 25 35 71 37 349 21 51 55 48 53 61 58 91 79 80 90 114 109 107 114 130 134
286 266 257 250 250 251 257 287 313 234 272 294 309 334 331 340 336 343 355 4 4 19 24 24 6 1 91 77 72 57 73 66 73 92 91 89 89 94 111 125 109 132 142
26 339 289 256 254 247 254 268 291 267 262 300 296 308 314 319 328 344 324 338 349 3 7 359 26 35 131 132 94 81 83 74 78 93 90 82 85 86 91 122 117 128 140
318 305 310 290 284 260 264 274 289 266 257 274 292 305 328 308 313 320 331 334 348 328 11 331 22 29 105 177 193 124 131 99 94 115 94 65 79 79 83 90 98 122 140
330 301 310 307 307 281 275 285 324 299 267 272 277 285 280 305 309 314 308 305 324 320 227 333 307 14 25 130 152 152 128 99 99 126 94 69 68 42 33 125 83 112 139
347 332 305 305 294 304 296 291 303 303 279 273 271 255 282 304 302 294 343 335 306 305 230 255 285 309 350 315 223 238 193 228 200 206 255 359 353 352 318 276 244 244 248
353 347 343 320 302 305 295 293 287 303 277 276 275 260 257 271 296 304 310 325 328 291 259 258 263 267 286 308 265 265 226 210 274 260 267 273 318 332 326 286 278 264 258
359 351 344 331 331 298 291 269 281 287 282 278 269 267 268 257 271 286 291 311 317 319 287 272 272 273 261 274 287 252 241 256 277 276 282 217 280 351 349 320 298 277 260
9 1 359 357 351 329 324 275 270 269 287 287 271 268 270 252 266 275 288 285 295 311 296 294 303 297 284 257 258 262 253 261 266 287 245 220 280 322 336 333 324 309 217
360 358 359 357 357 350 324 306 277 288 274 281 275 267 268 260 257 263 272 276 286 293 294 294 302 297 280 262 238 237 253 270 257 253 241 244 257 305 318 317 317 284 187
355 354 351 352 359 0 345 312 300 293 271 256 270 276 265 256 255 261 268 264 269 282 281 308 288 312 250 238 238 234 244 270 264 248 247 252 264 282 280 281 252 236 215
354 356 351 355 357 0 3 1 334 277 268 271 264 271 271 268 266 259 267 264 262 266 267 290 286 304 263 258 247 237 228 237 245 272 285 271 268 265 260 259 267 272 265
352 355 355 356 356 359 4 5 4 358 331 258 290 273 274 279 272 267 260 263 261 262 266 273 281 293 288 296 290 272 248 241 259 265 283 273 264 262 255 259 268 284 265
350 354 357 355 353 351 357 5 10 360 348 336 318 290 284 273 278 278 278 258 255 259 260 268 271 275 287 288 292 299 266 251 263 277 284 276 269 266 261 247 279 281 242